FW3137 Weather Reports


time (UTC)temp
C
wind
direction
speed
KPH
gust
KPH
rain 1hr
cm
rain 24hr
cm
rain mn
cm
humidity
%
barometer
mb
20260906201317 27 0 8.0 14.5 0.00 0.00 0.00 63 1015.1
20260906200317 27 0 8.0 16.1 0.00 0.00 0.00 63 1014.9
20260906195317 27 0 8.0 14.5 0.00 0.00 0.00 62 1014.7
20260906194317 27 0 8.0 16.1 0.00 0.00 0.00 62 1014.7
20260906193317 27 0 8.0 22.5 0.00 0.00 0.00 62 1014.7
20260906192317 27 0 4.8 12.9 0.00 0.00 0.00 62 1014.8
20260906191317 28 0 11.3 17.7 0.00 0.00 0.00 60 1015.0
20260906190317 28 0 12.9 30.6 0.00 0.00 0.00 59 1014.9
20260906185317 29 0 9.7 16.1 0.00 0.00 0.00 59 1015.0
20260906184357 28 0 11.3 17.7 0.00 0.00 0.00 60 1015.3
20260906183317 29 0 9.7 17.7 0.00 0.00 0.00 59 1015.2
20260906182337 29 0 16.1 25.7 0.00 0.00 0.00 59 1015.1
20260906181337 29 0 14.5 24.1 0.00 0.00 0.00 58 1015.1
20260906180316 28 0 16.1 24.1 0.00 0.00 0.00 59 1014.9
20260906175316 28 0 4.8 12.9 0.00 0.00 0.00 60 1015.2
20260906174317 28 0 8.0 17.7 0.00 0.00 0.00 61 1015.2
20260906173337 27 0 8.0 12.9 0.00 0.00 0.00 61 1015.4
20260906172316 27 0 9.7 14.5 0.00 0.00 0.00 62 1015.5
20260906171316 27 0 1.6 4.8 0.00 0.00 0.00 61 1015.9
20260906170316 28 0 6.4 12.9 0.00 0.00 0.00 61 1015.9
20260906165316 27 0 11.3 16.1 0.00 0.00 0.00 61 1015.9
20260906164316 27 0 3.2 8.0 0.00 0.00 0.00 61 1016.2
20260906163316 27 0 8.0 16.1 0.00 0.00 0.00 61 1016.2
20260906162316 28 0 8.0 14.5 0.00 0.00 0.00 60 1016.1
20260906161317 27 0 4.8 9.7 0.00 0.00 0.00 61 1016.1
20260906160336 27 0 8.0 20.9 0.00 0.00 0.00 62 1016.0
20260906155316 26 0 4.8 9.7 0.00 0.00 0.00 62 1016.0
20260906154316 26 0 8.0 14.5 0.00 0.00 0.00 62 1016.0
20260906153316 26 0 9.7 17.7 0.00 0.00 0.00 63 1016.2
20260906152316 26 135 6.4 12.9 0.00 0.00 0.00 64 1016.1
20260906151316 25 0 9.7 16.1 0.00 0.00 0.00 64 1016.0
20260906150316 25 0 4.8 8.0 0.00 0.00 0.00 65 1016.0
20260906145316 25 0 8.0 12.9 0.00 0.00 0.00 65 1016.1
20260906144316 25 0 12.9 16.1 0.00 0.00 0.00 65 1016.0
20260906143336 25 0 4.8 9.7 0.00 0.00 0.00 66 1016.2
20260906142316 24 0 8.0 16.1 0.00 0.00 0.00 66 1016.3
20260906141316 25 0 6.4 12.9 0.00 0.00 0.00 65 1016.2
20260906140316 25 0 4.8 8.0 0.00 0.00 0.00 66 1016.1
20260906135316 24 0 6.4 8.0 0.00 0.00 0.00 66 1016.3
20260906134316 23 0 8.0 14.5 0.00 0.00 0.00 67 1016.3
20260906133316 23 0 4.8 8.0 0.00 0.00 0.00 67 1016.5
20260906132316 23 0 3.2 6.4 0.00 0.00 0.00 71 1016.4
20260906131316 22 0 4.8 9.7 0.00 0.00 0.00 76 1016.5
20260906130316 22 113 3.2 4.8 0.00 0.00 0.00 77 1016.5
20260906125316 21 113 3.2 6.4 0.00 0.00 0.00 77 1016.4
20260906124316 21 135 1.6 4.8 0.00 0.00 0.00 77 1016.2
20260906123316 21 180 1.6 3.2 0.00 0.00 0.00 77 1016.0
20260906122356 21 0 4.8 8.0 0.00 0.00 0.00 77 1016.2
20260906121316 21 0 1.6 3.2 0.00 0.00 0.00 78 1016.2
20260906120316 21 0 4.8 6.4 0.00 0.00 0.00 78 1016.2
20260906115316 21 0 1.6 3.2 0.00 0.00 0.00 76 1016.4
20260906114336 21 0 3.2 4.8 0.00 0.00 0.00 76 1016.4
20260906113336 21 0 1.6 3.2 0.00 0.00 0.00 76 1016.3
20260906112316 21 0 4.8 8.0 0.00 0.00 0.00 75 1016.2
20260906111316 21 0 1.6 4.8 0.00 0.00 0.00 75 1016.1
20260906110315 21 0 3.2 4.8 0.00 0.00 0.00 75 1016.2
20260906105336 20 0 3.2 4.8 0.00 0.00 0.00 74 1016.4
20260906104316 20 0 3.2 4.8 0.00 0.00 0.00 73 1016.2
20260906103316 20 0 3.2 6.4 0.00 0.00 0.00 72 1016.2
20260906102316 21 0 4.8 6.4 0.00 0.00 0.00 72 1016.0
20260906101316 21 0 4.8 6.4 0.00 0.00 0.00 71 1016.2
20260906100315 21 0 6.4 8.0 0.00 0.00 0.00 71 1016.0
20260906095315 21 0 4.8 6.4 0.00 0.00 0.00 70 1015.9
20260906094316 21 0 6.4 9.7 0.00 0.00 0.00 69 1015.9
20260906093335 21 0 4.8 8.0 0.00 0.00 0.00 69 1016.2
20260906092316 21 0 3.2 6.4 0.00 0.00 0.00 69 1016.0
20260906091335 21 0 4.8 6.4 0.00 0.00 0.00 69 1016.0
20260906090316 21 0 4.8 4.8 0.00 0.00 0.00 69 1016.0
20260906085316 21 0 3.2 4.8 0.00 0.00 0.00 69 1016.1
20260906084316 21 0 3.2 4.8 0.00 0.00 0.00 69 1015.9
20260906083315 21 0 1.6 3.2 0.00 0.00 0.00 68 1015.7
20260906082335 22 0 4.8 6.4 0.00 0.00 0.00 68 1015.8
20260906081316 22 0 1.6 3.2 0.00 0.00 0.00 67 1015.8
20260906080315 22 0 3.2 6.4 0.00 0.00 0.00 67 1015.6
20260906075315 22 0 1.6 4.8 0.00 0.00 0.00 67 1015.4
20260906074317 22 0.0 1.6 0.00 0.00 0.00 67 1015.5
20260906073317 22 0 4.8 6.4 0.00 0.00 0.00 66 1015.6
20260906072317 22 0 4.8 6.4 0.00 0.00 0.00 66 1015.6
20260906071337 23 0 3.2 6.4 0.00 0.00 0.00 66 1015.5
20260906070317 23 0 4.8 8.0 0.00 0.00 0.00 65 1015.6
20260906065317 23 0 4.8 9.7 0.00 0.00 0.00 66 1015.6
20260906064337 23 180 3.2 4.8 0.00 0.00 0.00 65 1015.7
20260906063317 23 158 3.2 8.0 0.00 0.00 0.00 65 1015.8
20260906062317 23 135 3.2 8.0 0.00 0.00 0.00 65 1015.9
20260906061317 23 158 6.4 12.9 0.00 0.00 0.00 65 1016.2
20260906060337 23 135 4.8 8.0 0.00 0.00 0.00 65 1016.1
20260906055317 23 158 3.2 6.4 0.00 0.00 0.00 64 1016.1
20260906054317 23 158 3.2 9.7 0.00 0.00 0.00 64 1016.0
20260906053317 23 135 6.4 9.7 0.00 0.00 0.00 64 1015.7
20260906052337 23 0 9.7 16.1 0.00 0.00 0.00 64 1015.8
20260906051317 23 0 8.0 14.5 0.00 0.00 0.00 64 1015.9
20260906050337 23 0 8.0 14.5 0.00 0.00 0.00 64 1016.0
20260906045317 24 0 8.0 14.5 0.00 0.00 0.00 64 1016.1
20260906044317 24 0 8.0 14.5 0.00 0.00 0.00 64 1016.1
20260906043317 24 0 6.4 11.3 0.00 0.00 0.00 64 1016.1
20260906042317 24 0 9.7 12.9 0.00 0.00 0.00 63 1016.0
20260906041317 24 0 9.7 14.5 0.00 0.00 0.00 64 1015.9
20260906040317 24 0 9.7 16.1 0.00 0.00 0.00 64 1016.1
20260906035317 24 135 6.4 8.0 0.00 0.00 0.00 64 1015.9
20260906034317 24 0 3.2 8.0 0.00 0.00 0.00 64 1015.8
20260906033317 24 135 4.8 8.0 0.00 0.00 0.00 64 1016.1
20260906032317 24 113 3.2 6.4 0.00 0.00 0.00 64 1016.2
20260906031317 24 113 4.8 4.8 0.00 0.00 0.00 64 1016.2
20260906030317 24 135 3.2 6.4 0.00 0.00 0.00 64 1016.2
20260906025317 24 135 3.2 3.2 0.00 0.00 0.00 63 1016.2
20260906024317 25 0.0 0.0 0.00 0.00 0.00 62 1016.3
20260906023317 25 0.0 3.2 0.00 0.00 0.00 62 1016.2
20260906022317 25 113 3.2 6.4 0.00 0.00 0.00 61 1015.8
20260906021317 25 0 4.8 6.4 0.00 0.00 0.00 61 1015.7
20260906020317 25 113 4.8 8.0 0.00 0.00 0.00 60 1015.5
20260906015316 26 0 6.4 8.0 0.00 0.00 0.00 59 1015.3
20260906014316 26 0 8.0 14.5 0.00 0.00 0.00 59 1015.1
20260906013317 26 0 4.8 8.0 0.00 0.00 0.00 58 1015.2
20260906012317 26 135 4.8 8.0 0.00 0.00 0.00 57 1015.0
20260906011337 26 0 6.4 12.9 0.00 0.00 0.00 57 1015.0
20260906010336 26 0 8.0 12.9 0.00 0.00 0.00 57 1015.0
20260906005317 26 0 6.4 8.0 0.00 0.00 0.00 56 1015.2
20260906004317 27 0 6.4 8.0 0.00 0.00 0.00 55 1015.1
20260906003316 27 0 4.8 6.4 0.00 0.00 0.00 54 1015.1
20260906002317 27 158 3.2 6.4 0.00 0.00 0.00 54 1015.0
20260906001316 27 0 4.8 9.7 0.00 0.00 0.00 53 1015.0
20260906000318 28 0 8.0 14.5 0.00 0.00 0.00 52 1015.1
20260905235336 28 0 4.8 8.0 0.00 0.00 0.00 51 1014.6
20260905234316 29 0 11.3 19.3 0.00 0.00 0.00 48 1014.2
20260905233316 29 0 11.3 16.1 0.00 0.00 0.00 46 1014.0
20260905232336 30 0 8.0 16.1 0.00 0.00 0.00 45 1013.8
20260905231316 30 0 11.3 17.7 0.00 0.00 0.00 45 1013.7
20260905230336 30 0 6.4 8.0 0.00 0.00 0.00 46 1013.8
20260905225316 30 0 16.1 19.3 0.00 0.00 0.00 44 1013.6
20260905224317 30 0 11.3 16.1 0.00 0.00 0.00 45 1013.5
20260905223316 30 0 9.7 12.9 0.00 0.00 0.00 45 1013.5
20260905222316 30 0 14.5 20.9 0.00 0.00 0.00 45 1013.4
20260905221316 30 0 14.5 19.3 0.00 0.00 0.00 44 1013.6
20260905220316 30 0 17.7 22.5 0.00 0.00 0.00 45 1013.4
20260905215316 30 0 12.9 24.1 0.00 0.00 0.00 49 1013.5
20260905214356 29 0 17.7 24.1 0.00 0.00 0.00 49 1013.7
20260905213316 29 0 20.9 25.7 0.00 0.00 0.00 49 1014.0
20260905212316 29 0 8.0 9.7 0.00 0.00 0.00 50 1014.0
20260905211316 29 0 16.1 24.1 0.00 0.00 0.00 50 1014.1
20260905210316 29 0 12.9 19.3 0.00 0.00 0.00 50 1014.3
20260905205316 28 0 19.3 27.4 0.00 0.00 0.00 51 1014.5
20260905204316 28 0 16.1 24.1 0.00 0.00 0.00 53 1014.6
20260905203316 28 0 20.9 30.6 0.00 0.00 0.00 53 1014.6
20260905202336 28 0 17.7 20.9 0.00 0.00 0.00 54 1014.7